Arbor Vitae, WI

11:56 AM CDT on June 22, 2017 (GMT -0500)
Lakeland-Lee Memorial

Weather History for KARV - June, 2013

Change the Weather History Date:

Saturday, June 15, 2013

  Actual Average Record
Temperature  
Mean Temperature 60 °F -  
Max Temperature 66 °F 73 °F 91 °F (1988)
Min Temperature 56 °F 49 °F 29 °F (1927)
Degree Days  
Heating Degree Days 4    
Growing Degree Days 10 (Base 50)    
Moisture  
Dew Point 58 °F    
Average Humidity 86    
Maximum Humidity 95    
Minimum Humidity 66    
Precipitation  
Precipitation 1.30 in - - ()
Sea Level Pressure  
Sea Level Pressure 29.93 in    
Wind  
Wind Speed 5 mph (SSW)    
Max Wind Speed 10 mph    
Max Gust Speed 26 mph    
Visibility 7 miles    
Events Fog , Rain , Thunderstorm    
Averages and records for this station are not official NWS values.
T = Trace of Precipitation, MM = Missing Value Source: NWS Daily Summary

Daily Weather History Graph

Daily Weather History Graph

Search for Another Location

Airport or City:

Trip Planner

Search our weather history database for the weather conditions in past years. The results will help you decide how hot, cold, wet, or windy it might be!

Date:

Astronomy

Jun. 15, 2013 Rise Set
Actual Time 5:07 AM CDT 8:51 PM CDT
Civil Twilight 4:29 AM CDT 9:29 PM CDT
Nautical Twilight 3:37 AM CDT 10:21 PM CDT
Astronomical Twilight 2:26 AM CDT 11:33 PM CDT
Moon 12:02 PM CDT (6/15) 12:08 AM CDT (6/15)
Length of Visible Light 17h 00m
Length of Day
15h 43m
Waxing Crescent, 40% of the Moon is Illuminated
Jun 15
Waxing Crescent
Jun 16
First Quarter
Jun 23
Full
Jun 29
Last Quarter
Jul 8
New

Hourly Weather History & Observations

Time (CDT) Temp. Dew Point Humidity Pressure Visibility Wind Dir Wind Speed Gust Speed Precip Events Conditions
12:15 AM 63.3 °F 53.4 °F 70% 30.00 in 10.0 mi South 4.6 mph - N/A   Overcast
12:35 AM 63.1 °F 52.7 °F 69% 30.00 in 10.0 mi Calm Calm - N/A   Overcast
12:55 AM 63.0 °F 52.9 °F 70% 30.00 in 10.0 mi South 4.6 mph - N/A   Mostly Cloudy
1:15 AM 63.1 °F 52.2 °F 67% 29.99 in 10.0 mi South 6.9 mph - N/A   Mostly Cloudy
1:35 AM 63.1 °F 51.6 °F 66% 29.98 in 10.0 mi SSE 8.1 mph - N/A   Scattered Clouds
1:55 AM 63.1 °F 51.8 °F 66% 30.00 in 10.0 mi South 5.8 mph - N/A   Overcast
2:15 AM 62.6 °F 51.8 °F 68% 29.98 in 10.0 mi SSE 5.8 mph - N/A   Mostly Cloudy
2:35 AM 61.9 °F 51.8 °F 69% 29.96 in 10.0 mi SSE 4.6 mph - N/A   Clear
2:55 AM 61.9 °F 53.8 °F 75% 29.98 in 10.0 mi SSW 5.8 mph - N/A   Mostly Cloudy
3:15 AM 61.9 °F 53.1 °F 73% 29.98 in 10.0 mi SSW 6.9 mph - N/A   Overcast
3:35 AM 61.9 °F 53.2 °F 73% 29.98 in 10.0 mi SSW 9.2 mph - N/A   Overcast
3:55 AM 61.9 °F 53.6 °F 74% 29.97 in 10.0 mi SSW 5.8 mph - N/A   Overcast
4:15 AM 61.9 °F 54.5 °F 77% 29.96 in 10.0 mi South 6.9 mph - N/A Rain Light Rain
4:35 AM 61.9 °F 55.8 °F 80% 29.96 in 10.0 mi SW 5.8 mph - N/A   Overcast
4:55 AM 61.9 °F 55.6 °F 80% 29.96 in 10.0 mi Calm Calm - N/A   Overcast
5:15 AM 61.9 °F 55.9 °F 81% 29.96 in 10.0 mi South 3.5 mph - N/A   Overcast
5:35 AM 61.9 °F 55.6 °F 80% 29.96 in 10.0 mi Calm Calm - N/A   Overcast
5:55 AM 61.9 °F 55.8 °F 80% 29.96 in 10.0 mi ESE 3.5 mph - N/A Thunderstorm Overcast
6:15 AM 61.9 °F 55.9 °F 81% 29.96 in 10.0 mi Calm Calm - N/A Thunderstorm Overcast
6:35 AM 61.9 °F 55.9 °F 81% 29.97 in 10.0 mi Calm Calm - N/A Thunderstorm Overcast
6:55 AM 61.9 °F 56.3 °F 82% 29.96 in 10.0 mi ESE 4.6 mph - N/A   Overcast
7:15 AM 61.9 °F 56.3 °F 82% 29.96 in 10.0 mi ESE 4.6 mph - N/A   Overcast
7:35 AM 62.2 °F 56.5 °F 81% 29.95 in 10.0 mi ESE 3.5 mph - N/A   Overcast
7:55 AM 63.0 °F 57.2 °F 81% 29.95 in 10.0 mi SSE 6.9 mph - N/A Thunderstorm Thunderstorm
8:15 AM 61.9 °F 56.8 °F 84% 29.95 in 10.0 mi SE 5.8 mph - N/A Rain Rain
8:35 AM 61.9 °F 58.3 °F 88% 29.95 in 5.0 mi SSE 3.5 mph - N/A Thunderstorm Drizzle
8:55 AM 61.9 °F 59.0 °F 90% 29.96 in 5.0 mi SSE 6.9 mph - N/A   Overcast
9:15 AM 59.9 °F 57.4 °F 91% 29.95 in 2.5 mi South 5.8 mph - N/A   Drizzle
9:35 AM 59.9 °F 57.6 °F 92% 29.95 in 2.5 mi South 5.8 mph - N/A Thunderstorm Unknown
9:55 AM 60.1 °F 57.9 °F 93% 29.95 in 2.0 mi South 4.6 mph - N/A   Drizzle
10:15 AM 61.0 °F 58.8 °F 93% 29.94 in 2.0 mi South 6.9 mph - N/A   Drizzle
10:35 AM 61.9 °F 59.9 °F 93% 29.93 in 3.0 mi South 10.4 mph - N/A   Overcast
10:55 AM 61.9 °F 59.5 °F 92% 29.94 in 10.0 mi South 8.1 mph - N/A   Overcast
11:15 AM 61.9 °F 59.4 °F 91% 29.94 in 10.0 mi South 8.1 mph - N/A   Overcast
11:35 AM 62.2 °F 59.7 °F 91% 29.94 in 10.0 mi SSW 9.2 mph - N/A   Overcast
11:55 AM 61.9 °F 59.4 °F 91% 29.95 in 5.0 mi SSW 6.9 mph - N/A   Overcast
12:15 PM 61.9 °F 59.5 °F 92% 29.94 in 3.0 mi South 6.9 mph - N/A   Overcast
12:35 PM 62.2 °F 60.1 °F 93% 29.93 in 3.0 mi South 8.1 mph - N/A   Overcast
12:55 PM 63.1 °F 61.0 °F 93% 29.93 in 3.0 mi SSW 6.9 mph - N/A   Overcast
1:15 PM 63.1 °F 60.8 °F 92% 29.93 in 4.0 mi SSW 6.9 mph - N/A   Overcast
1:35 PM 63.1 °F 60.8 °F 92% 29.93 in 5.0 mi South 6.9 mph - N/A   Overcast
1:55 PM 64.4 °F 61.7 °F 91% 29.94 in 7.0 mi SW 6.9 mph - N/A   Overcast
2:15 PM 64.9 °F 61.9 °F 90% 29.92 in 10.0 mi SSW 6.9 mph - N/A   Overcast
2:35 PM 64.9 °F 61.9 °F 90% 29.92 in 10.0 mi SSW 5.8 mph - N/A   Overcast
2:55 PM 65.5 °F 62.1 °F 89% 29.92 in 10.0 mi SW 6.9 mph - N/A   Overcast
3:15 PM 65.7 °F 61.9 °F 88% 29.91 in 10.0 mi SW 5.8 mph - N/A   Overcast
3:35 PM 65.7 °F 62.2 °F 89% 29.90 in 10.0 mi SW 8.1 mph - N/A   Overcast
3:55 PM 65.7 °F 62.6 °F 90% 29.91 in 10.0 mi WSW 3.5 mph - N/A   Overcast
4:15 PM 65.7 °F 62.8 °F 90% 29.90 in 7.0 mi WSW 5.8 mph - N/A   Overcast
4:35 PM 65.7 °F 63.0 °F 91% 29.89 in 3.0 mi West 3.5 mph - N/A   Drizzle
4:55 PM 65.3 °F 63.0 °F 92% 29.89 in 1.8 mi West 4.6 mph - N/A   Overcast
5:15 PM 65.3 °F 63.0 °F 92% 29.89 in 1.2 mi Calm Calm - N/A   Overcast
5:35 PM 65.3 °F 63.1 °F 93% 29.89 in 1.0 mi West 3.5 mph - N/A   Light Drizzle
5:55 PM 64.8 °F 63.0 °F 94% 29.89 in 1.2 mi Calm Calm - N/A   Overcast
6:15 PM 64.8 °F 63.0 °F 94% 29.89 in 1.5 mi SW 3.5 mph - N/A Rain Light Rain
6:35 PM 64.8 °F 63.0 °F 94% 29.90 in 2.5 mi WSW 3.5 mph - N/A Rain , Thunderstorm Light Thunderstorms and Rain
6:55 PM 65.3 °F 63.5 °F 94% 29.91 in 2.5 mi SSW 6.9 mph - 0.19 in Rain , Thunderstorm Heavy Thunderstorms and Rain
7:15 PM 62.1 °F 59.7 °F 92% 29.92 in 0.8 mi WSW 9.2 mph 26.5 mph 1.03 in Rain , Thunderstorm Heavy Thunderstorms and Rain
7:35 PM 61.9 °F 58.8 °F 90% 29.89 in 5.0 mi North 4.6 mph - 1.11 in Rain , Thunderstorm Rain
7:55 PM 61.9 °F 59.2 °F 91% 29.86 in 10.0 mi Calm Calm - 1.11 in Rain , Thunderstorm Light Thunderstorms and Rain
8:15 PM 61.9 °F 59.5 °F 92% 29.84 in 10.0 mi Calm Calm - N/A   Clear
8:35 PM 61.9 °F 59.4 °F 91% 29.84 in 10.0 mi Calm Calm - N/A   Clear
8:55 PM 61.9 °F 59.9 °F 93% 29.83 in 10.0 mi Calm Calm - N/A   Clear
9:15 PM 60.1 °F 58.3 °F 94% 29.84 in 1.8 mi Calm Calm - N/A   Mist
9:35 PM 59.4 °F 57.6 °F 94% 29.84 in 0.8 mi Calm Calm - N/A   Mist
9:55 PM 59.4 °F 57.7 °F 94% 29.84 in 0.8 mi Calm Calm - N/A   Mist
10:15 PM 57.6 °F 55.9 °F 94% 29.84 in 0.5 mi Calm Calm - N/A Fog Fog
10:35 PM 56.8 °F 55.4 °F 95% 29.84 in 0.2 mi Calm Calm - N/A Fog Fog
10:55 PM 56.8 °F 55.4 °F 95% 29.86 in 5.0 mi Calm Calm - N/A   Clear
11:15 PM 56.8 °F 55.4 °F 95% 29.87 in 4.0 mi West 3.5 mph - N/A   Clear
11:35 PM 56.8 °F 55.4 °F 95% 29.87 in 4.0 mi Calm Calm - N/A   Clear
11:55 PM 56.8 °F 55.4 °F 95% 29.87 in 1.0 mi South 4.6 mph - N/A   Mist